Погода Мирный

Погода Мирный : погода сейчас, прогноз погоды и архив. Всё, что Вы хотите узнать о погоде Мирный!

Хотите узнать прогноз погоды Мирный? Тогда Вам сюда: Погода Мирный

Поиск расширенной информации на нашем сайте:

Другие новости

Новости СМИ2

Главная страница сайта

Новости сайта

03.07.2017

Напоминаем, что на нашем специализированном сайте Метеоцентр.Азия вы можете получить высокодетализированные автоматические прогнозы погоды по пунктам России, СНГ и мира в авиационном формате (включающие направление и скорость ветра, видимость, явления погоды, количество и форму облачности, нижнюю и верхнюю границу облачности).


Погода Мирный - сегодня

Время (UTC), дата Ветер
(°,м/с) 
Видим.   Явления Облачность Т
(°С)
Тd
(°С)
f(%) Тe
(°С)
Pmin
(гПа)
dP
(гПа)
Po
(мм)
O2
(г/м3)
Тmin Tmax R s Состояние
почвы
09 15.06.18 200 (Ю) 20000 м  слаб. ливневой дождь  10/8 1000 м кучево-дожд., верхняя 
[Cb cap|Ci fib]
+23.6 +4.2 28 +24  1012.8  -1  729  270           
12 15.06.18 220 (ЮЗ) 20000 м  {ливн. осадки}  10/3 1000 м кучево-дожд., средняя, верхняя 
[Cb cap|Ac trans|Ci fib]
+21.7 +4 31 +22  1013.3  0.2  729  272    +24.5  0.0     
15 15.06.18 280 (З) 20000 м    6/0 средняя, верхняя 
[Ac trans|Ci fib]
+15.2 +7.1 58 +17  1013.6  -0.7  729  277           
18 15.06.18 340 (С) 20000 м    8/0 средняя, верхняя 
[Ac trans|Ci fib]
+13.3 +6.9 65 +13  1013.5  -0.4  729  279           
21 15.06.18 350 (С) 20000 м    10/3 1000 м кучево-дожд., средняя, верхняя 
[Cb cap|Ac trans|Ci fib]
+13.9 +8.1 68 +14  1013.4  729  278           
00 16.06.18 280 (З) 20000 м    10/1 1000 м кучево-дожд., средняя, верхняя 
[Cb cap|Ac trans|Ci fib]
+19.7 +10.9 57 +24  1012.5  729  272  +11.3        сухая 
03 16.06.18 тихо ()   20000 м    10/1 1500 м верхняя 
[Cu hum|Ci fib]
+24.9 +7 32 +25  1010.8  -0.9  728  268           
06 16.06.18 330 (СЗ) 20000 м    10/3 1500 м верхняя 
[Cu hum|Ci fib]
+26.7 +7.2 29 +27  1007.9  -2.6  726  265           
12 16.06.18 070 (В) 20000 м  {гроза, ливн. осадки}  10/5 1000 м кучево-дожд., верхняя 
[Cb cap|Ci ing]
+23.4 +5.4 31 +23  1006.9  -0.7  725  268    +28.2  0.0     
15 16.06.18 330 (СЗ) 20000 м    10/0 средняя, верхняя 
[Ac trans|Ci ing]
+16.7 +8.1 57 +17  1007.3  -0.5  725  274           
18 16.06.18 310 (СЗ) 20000 м  слаб. ливневой дождь  10/4 1000 м кучево-дожд., средняя, верхняя 
[Cb cap|Ac trans|Ci ing]
+15.3 +9.5 68 +16  1006.5  -0.9  724  274           
21 16.06.18 040 (СВ) 20000 м  {ливн. осадки}  10/4 1000 м кучево-дожд., средняя 
[Cb cap|Ac As]
+14.8 +10 73 +17  1006.3  -0.4  724  275           
00 17.06.18 030 (СВ) 20000 м  слаб. ливневой дождь  10/6 1000 м кучево-дожд., средняя 
[Cb cap|Ac und]
+14.2 +9.8 75 +16  1006.8  0.5  724  275  +14    0.1    влажная 
06 17.06.18 330 (СЗ) 20000 м  {ливн. осадки}  8/6 600 м кучево-дожд., верхняя 
[Cb calv|Ci fib]
+19.6 +11.2 58 +24  1005.1  -1  723  270           
15 17.06.18 330 (СЗ) 20000 м    1/0 средняя 
[Ac trans]
+12.8 +5.3 60 +13  1006.8  0.3  724  278           
18 17.06.18 320 (СЗ) 20000 м    1/0 средняя 
[Ac trans]
+12.6 +3.7 55 +12  1007.3  0.5  724  278           
21 17.06.18 320 (СЗ) 20000 м    1/0 средняя 
[Ac trans]
+13.2 +4.5 56 +13  1007.3  724  278           
00 18.06.18 330 (СЗ) 20000 м    6/0 верхняя 
[Ci]
+19.1 +6 42 +19  1006.1  -0.4  724  272  +11.6        сухая 
12 18.06.18 330 (СЗ) 4{15}  20000 м    10/0 средняя, верхняя 
[Ac cuf|Ci sp]
+21.4 +7.8 42 +21  1004.7  0.2  723  269    +25.8       
15 18.06.18 330 (СЗ) 20000 м    10/4 600 м кучево-дожд., средняя, верхняя 
[Cb cap|Ac trans|Ci sp]
+18.5 +9.2 55 +20  1005.8  0.5  724  271           
18 18.06.18 330 (СЗ) 20000 м    10/1 600 м кучево-дожд., средняя, верхняя 
[Cb cap|Ac trans|Ci fib]
+14.7 +9.5 71 +15  1005.8  -0.6  723  275           
21 18.06.18 320 (СЗ) 20000 м    5/0 средняя, верхняя 
[Ac trans|Ci fib]
+15.1 +10.1 72 +17  1005.8  0.2  723  274           
00 19.06.18 330 (СЗ) 20000 м    4/0 верхняя 
[Cc]
+21.1 +10.1 49 +23  1004.9  -0.1  723  269  +13.6        сухая 
03 19.06.18 290 (З) 20000 м    10/4 1000 м кучево-дожд., средняя, верхняя 
[Cb cap|Ac trans|Ci sp]
+23.8 +9 39 +24  1004  -0.4  723  266           
06 19.06.18 320 (СЗ) 20000 м  {ливн. осадки}  10/4 1000 м кучево-дожд., верхняя 
[Cb cap|Ci ing]
+23.5 +11 45 +27  1002.9  -1.1  722  266           
Время (UTC), дата Ветер
(°,м/с) 
Видим.   Явления Облачность Т
(°С)
Тd
(°С)
f(%) Тe
(°С)
Pmin
(гПа)
dP
(гПа)
Po
(мм)
O2
(г/м3)
Тmin Tmax R s Состояние
почвы

Для получения пояснительной информации подведите курсор к названию столбца.

ПОГОДА Мирный - архив

Всё, что Вы хотите узнать о погоде Мирный - удобно и подробно!

Выберите нужную дату (начиная с 1 января 2015* года) и нажмите кнопку "Найти".
Будут отображены архивные сводки погоды по пункту Мирный, начиная с указанной даты.


Отображать данные в формате CSV (для использования в таблицах Excel)


Внимание! Наш архив погоды предназначен исключительно для личного некоммерческого использования в познавательных целях. Если Вам необходимы официальные справки о состоянии погоды (для производственных, юридических, коммерческих и т.п. целей), обращайтесь в органы Росгидромета.

*Примечание: данная дата относится к архиву по метеостанциям СССР (Россия, СНГ, Балтия).
Архив по метеостанциям Зарубежной Европы и Азии (кроме Китая) хранится 10 дней, по другим регионам земного шара (Китай, Африка, Америка, Австралия, Океания) - 1 день.

Мирный - район местоположения метеостанции


Название, широта, долгота, высота метеостанции:
Мирный 62.5°ш. 114.0°д. 352 м над ур. моря [Российская Федерация]

Дополнительная информация

В oтличие oт бoльшинства пoгoдных сайтoв мы публикуем пoдрoбную метеoинфoрмацию в детальнoм прoфессиoнальнoм фoрмате.

Характеристики температуры и влажнoсти вoздуха измеряются на высoте 2 м в тени вдали oт зданий и деревьев.
Скoрoсть ветра измеряется на высoте 10 м (на урoвне рoста челoвека скoрoсть ветра ниже в 1.5-2 раза). Если метеoстанция нахoдится в гoрoде или в лесу, тo скoрoсть ветра занижена на 2-4 м/с пo сравнению с oткрытым местoм. Скoрoсть ветра над акватoриями крупных рек и oзёр, а также на вершинах хoлмoв на 2-5 м/с выше, чем в oбычных услoвиях.
Атмoсфернoе давление в разных тoчках местнoсти мoжет значительнo oтличаться oт давления на метеoстанции, в зависимoсти oт услoвий рельефа (при пoдъёме на 10 м давление пoнижается примернo на 1 мм рт.ст.).